Location: Berg
(48.5667°N, 13.9833°E)
Time: 21:34:27
(UTC+00:00)

Cosmos 1656 - Pass Details

Date: 09 April 2020
Orbit: 798 x 849 km, 71.1° (Epoch: 26 May)

Event Time Altitude Azimuth Distance (km) Brightness Sun altitude
Rises 19:40:43 0° 333° (NNW) 3,423 8.0 -17.9°
Reaches altitude 10° 19:43:13 10° 337° (NNW) 2,480 7.0 -18.2°
Maximum altitude 19:48:53 64° 59° (ENE) 929 3.8 -18.9°
Enters shadow 19:51:10 36° 127° (SE) 1,311 4.1 -19.2°
